User: anonymous   Login
Location: Équennes
(49.7375°N, 1.9622°E)
Time: 11:24:54
(UTC+00:00)
Language:

FLOCK 4Y 13 - Orbit

View from above orbital plane
View from above orbital plane
View from above satellite
View from above satellite

Ground track
Ground track

The orbit data is extracted from the following two-line orbital elements,

1 55079U 23001BY  24170.16658122  .00015473  00000-0  55305-3 0  9998
2 55079  97.4267 232.2603 0013166 161.4804 198.6918 15.28829627 80934
Epoch (UTC): 18 June 2024 03:59:52
Eccentricity: 0.0013166
inclination: 97.4267°
perigee height: 470 km
apogee height: 488 km
right ascension of ascending node: 232.2603°
argument of perigee: 161.4804°
revolutions per day: 15.28829627
mean anomaly at epoch: 198.6918°
orbit number at epoch: 8093

The dashed part of the orbit path shows where the satellite is in the earth's shadow,  

DLR